Location: *
(47.6569°N, 7.4256°E)
Time: 15:55:49
(UTC+00:00)

STARLINK-52 - Pass Details

Date: 14 December 2019
Orbit: 442 x 445 km, 53.0° (Epoch: 18 January)

Event Time Altitude Azimuth Distance (km) Brightness Sun altitude
Rises 16:08:50 0° 228° (SW) 2,422 8.9 -5.1°
Reaches altitude 10° 16:10:58 10° 223° (SW) 1,556 7.4 -5.5°
Maximum altitude 16:14:23 54° 146° (SE) 543 3.6 -6.0°
Drops below altitude 10° 16:17:50 10° 68° (ENE) 1,566 5.3 -6.5°
Enters shadow 16:18:09 - 67° (ENE) 1,693 5.4 -6.5°
